[[{"header":{"parameterUnit":"m.s-1","parameterCategory":1,"la1":30.2991,"la2":30.254,"lo1":-89.0895,"lo2":-89.0444,"dy":0.0017,"dx":0.0017,"nx":28,"ny":28,"refTime":"2023-10-16T21:00:00:Z","depth":0,"parameterNumber":2,"parameterNumberName":"U-component_of_WINDS"},"data":[0,0,0,0,0,0,0,0,0,0,0,0,0,0,0,0,0,0,0,0,0,0,0,0,0,0,0,0,0,0,0,0,0,0,0,0,0,0,0,0,0,0,0,0,0,0,0,0,0,0,0,0,0,0,0,0,0,0,1.1994,1.1992,0,1.1844,1.1843,1.1841,1.1706,1.1705,1.1703,1.1702,1.1544,1.1541,1.1538,0,0,0,0,0,0,0,0,0,0,0,0,0,1.2158,1.2156,1.1994,1.1992,1.199,1.1845,1.1843,1.1841,1.1707,1.1705,1.1703,1.1701,1.1545,1.1541,1.1538,0,0,0,0,0,0,0,0,0,0,0,0,0,1.2055,1.2155,1.1994,1.1906,1.1897,1.1845,1.1842,1.184,1.1707,1.1705,1.1702,1.17,1.1546,1.1542,1.1538,1.156,0,0,1.1525,1.1523,0,0,0,0,0,0,0,0,1.2061,1.2049,1.1921,1.1912,1.1901,1.1792,1.1842,1.1746,1.1708,1.1779,1.1702,1.1699,1.1628,1.1617,1.1594,1.1552,1.1546,1.1525,1.1522,1.1521,1.1519,0,0,0,0,0,0,0,1.2069,1.2055,1.1935,1.1919,1.1907,1.1872,1.1855,1.1823,1.1718,1.1773,1.1762,1.1747,1.1622,1.1598,1.1589,1.1543,1.1525,1.1521,1.1519,1.1517,1.1508,1.1511,0,0,0,0,0,0,1.209,1.2062,1.1939,1.193,1.1977,1.1871,1.1852,1.1829,1.1718,1.1699,1.1749,1.1741,1.1606,1.1594,1.1583,1.1598,1.1521,1.1517,1.1514,1.1506,1.1509,1.1511,0,0,0,0,0,0,1.2094,1.208,1.1945,1.1993,1.1973,1.1871,1.1847,1.1828,1.1803,1.1701,1.1681,1.1744,1.1604,1.1589,1.1566,1.1591,1.1515,1.1511,1.1504,1.1507,1.151,1.1632,0,0,0,0,0,0,1.2099,1.2083,1.2092,1.1995,1.1971,1.1933,1.1848,1.1826,1.1797,1.1786,1.1691,1.1673,1.1601,1.1573,1.1562,1.1584,1.1508,1.1501,1.1505,1.1509,1.1625,1.1639,1.1651,0,0,0,0,0,1.2106,1.2132,1.2093,1.2079,1.1981,1.1935,1.1921,1.184,1.18,1.1807,1.174,1.1676,1.1591,1.1572,1.1558,1.158,1.1499,1.1504,1.1509,1.162,1.1637,1.1651,0,0,0,0,0,0,1.2233,1.2117,1.2073,1.2069,1.2013,1.1912,1.1918,1.1861,1.1814,1.1804,1.1703,1.1683,1.1671,1.1623,1.1604,1.1593,1.1536,1.1539,1.1625,1.164,1.1653,1.1663,1.1505,0,0,0,0,0,1.2261,1.2235,1.2135,1.214,1.2115,1.2022,1.1999,1.1941,1.1878,1.1853,1.1785,1.1726,1.1685,1.166,1.1617,1.1619,1.1594,1.1627,1.164,1.1651,1.1653,1.1646,1.1659,1.1528,1.1528,1.1528,0,0,1.2317,1.2251,1.2241,1.2164,1.2114,1.2087,1.2003,1.1979,1.1957,1.1849,1.1823,1.1771,1.1698,1.1686,1.1678,1.1646,1.1684,1.1657,1.1667,1.1663,1.1653,1.1665,1.1676,1.1531,1.1531,1.153,0,0,1.2406,1.2355,1.2352,1.2304,1.223,1.2167,1.2167,1.2075,1.2037,1.201,1.1927,1.1899,1.1833,1.1782,1.1748,1.1818,1.1755,1.1806,1.1873,1.1867,1.1878,1.1886,1.1907,1.1917,1.181,1.181,1.181,0,1.2485,1.2443,1.2358,1.2338,1.2306,1.2209,1.2204,1.216,1.2076,1.2054,1.2021,1.1933,1.1877,1.1851,1.1868,1.1845,1.1838,1.1815,1.1884,1.1891,1.1898,1.1917,1.1925,1.1817,1.1816,1.1815,1.1815,0,1.2542,1.2515,1.2521,1.2442,1.2411,1.2399,1.231,1.2288,1.2233,1.2173,1.2145,1.2074,1.2014,1.2004,1.195,1.197,1.1952,1.1903,1.1842,1.1918,1.1934,1.1941,1.1826,1.1824,1.1822,1.182,0,0,1.2705,1.258,1.2583,1.2545,1.2456,1.2431,1.2414,1.2356,1.2338,1.2283,1.2263,1.2209,1.2162,1.2123,1.2062,1.2059,1.2113,1.2009,1.2005,1.2028,1.2126,1.2162,1.2172,1.2073,1.2074,1.2075,1.2132,0,1.2776,1.2741,1.2663,1.2651,1.2622,1.2529,1.2514,1.2456,1.24,1.2366,1.2304,1.2265,1.2208,1.2184,1.2176,1.2109,1.2131,1.2104,1.205,1.2049,1.2069,1.2181,1.2219,1.2276,1.2138,1.2139,1.2139,0,1.2854,1.2805,1.2791,1.2701,1.2686,1.2674,1.2613,1.2583,1.2515,1.2474,1.2431,1.2364,1.2338,1.2285,1.2245,1.2228,1.2202,1.2165,1.2165,1.2155,1.2097,1.217,1.2292,1.23,1.2149,1.2148,1.2148,0,1.297,1.2901,1.2882,1.2853,1.2749,1.2742,1.2698,1.2627,1.2597,1.2544,1.2522,1.2467,1.2436,1.2394,1.2312,1.2282,1.2281,1.2222,1.2243,1.2245,1.2245,1.2245,1.2361,1.2234,1.2234,1.2233,1.2233,0,1.3056,1.305,1.2933,1.2921,1.291,1.2821,1.2812,1.2759,1.2697,1.2671,1.2588,1.2565,1.2461,1.2425,1.2362,1.2337,1.2324,1.2288,1.2271,1.2294,1.2298,1.2273,1.2266,1.2236,1.2235,1.2235,1.2234,0,1.3183,1.3105,1.3078,1.2982,1.2957,1.2953,1.287,1.2853,1.2793,1.2761,1.2749,1.2653,1.2607,1.2522,1.2452,1.2409,1.2396,1.2368,1.242,1.2408,1.2433,1.2431,1.2534,1.2542,1.2414,1.2415,1.2417,0,1.3241,1.3234,1.3137,1.3115,1.3074,1.304,1.3008,1.292,1.289,1.2811,1.2803,1.2751,1.2704,1.2634,1.2556,1.2501,1.2469,1.2509,1.246,1.2483,1.2465,1.2466,1.2463,1.252,1.2521,1.2523,1.2524,0,1.3351,1.3313,1.3272,1.3217,1.3183,1.3135,1.3082,1.3068,1.2967,1.2938,1.289,1.2854,1.2782,1.273,1.2663,1.2615,1.2552,1.2541,1.2542,1.2564,1.2593,1.2574,1.2446,1.2538,1.2537,1.2536,1.2535,1.2534,1.3443,1.3431,1.3361,1.3317,1.3269,1.3222,1.3201,1.3139,1.3098,1.3033,1.2983,1.2939,1.2868,1.2773,1.2728,1.269,1.2661,1.2664,1.2664,1.2665,1.2673,1.2602,1.2678,1.2678,1.2677,1.2677,1.2676,0,1.3546,1.3496,1.3457,1.3387,1.3352,1.3299,1.3238,1.3211,1.3174,1.3114,1.307,1.3013,1.2962,1.2881,1.2823,1.2808,1.2777,1.2795,1.2793,1.2782,1.2704,1.2707,1.2821,1.2821,1.282,1.282,1.282,1.282,1.3595,1.3572,1.3525,1.3476,1.3426,1.3383,1.3352,1.3307,1.3258,1.32,1.3158,1.3106,1.3037,1.2972,1.2922,1.2899,1.2879,1.2906,1.2874,1.2802,1.2788,1.2776,1.2778,1.2904,1.2904,1.2955,1.2955,1.2956]},{"header":{"parameterUnit":"m.s-1","parameterCategory":1,"la1":30.2991,"la2":30.254,"lo1":-89.0895,"lo2":-89.0444,"dy":0.0017,"dx":0.0017,"nx":28,"ny":28,"refTime":"2023-10-16T21:00:00:Z","depth":0,"parameterNumber":3,"parameterNumberName":"V-component_of_WINDS"},"data":[0,0,0,0,0,0,0,0,0,0,0,0,0,0,0,0,0,0,0,0,0,0,0,0,0,0,0,0,0,0,0,0,0,0,0,0,0,0,0,0,0,0,0,0,0,0,0,0,0,0,0,0,0,0,0,0,0,0,0.7646,0.7645,0,0.758,0.7579,0.7578,0.7497,0.7495,0.7494,0.7493,0.7426,0.7426,0.7425,0,0,0,0,0,0,0,0,0,0,0,0,0,0.7701,0.77,0.7646,0.7645,0.7645,0.758,0.7579,0.7578,0.7497,0.7495,0.7494,0.7492,0.7427,0.7426,0.7425,0,0,0,0,0,0,0,0,0,0,0,0,0,0.766,0.77,0.7646,0.7596,0.7591,0.758,0.7579,0.7578,0.7497,0.7495,0.7493,0.7491,0.7427,0.7426,0.7425,0.7459,0,0,0.7423,0.7422,0,0,0,0,0,0,0,0,0.7663,0.7658,0.7604,0.76,0.7594,0.7544,0.7574,0.7538,0.7498,0.7533,0.7493,0.7491,0.7467,0.7463,0.7455,0.7456,0.7453,0.7422,0.7422,0.7422,0.7421,0,0,0,0,0,0,0,0.7666,0.7661,0.762,0.7604,0.7597,0.7576,0.7569,0.7567,0.7512,0.753,0.7524,0.7517,0.7464,0.7456,0.7453,0.7452,0.7422,0.7422,0.7421,0.7421,0.7473,0.7475,0,0,0,0,0,0,0.7676,0.7664,0.7622,0.7618,0.7624,0.7577,0.7568,0.7562,0.7512,0.7502,0.7518,0.7513,0.7458,0.7454,0.745,0.7484,0.7422,0.7421,0.742,0.7471,0.7473,0.7476,0,0,0,0,0,0,0.7677,0.7673,0.7625,0.7639,0.7631,0.7578,0.7572,0.7562,0.7554,0.7503,0.7493,0.752,0.7457,0.7451,0.7456,0.748,0.742,0.742,0.7469,0.7472,0.7475,0.7553,0,0,0,0,0,0,0.7679,0.7674,0.7687,0.764,0.7631,0.7633,0.7574,0.7562,0.7552,0.7545,0.7502,0.7493,0.7455,0.7458,0.7456,0.7478,0.7419,0.7467,0.747,0.7474,0.7548,0.7558,0.7567,0,0,0,0,0,0.7682,0.7713,0.7688,0.7683,0.7646,0.7634,0.7629,0.7584,0.7555,0.7567,0.7533,0.7495,0.7478,0.7459,0.7456,0.7479,0.7465,0.7469,0.7473,0.7544,0.7556,0.7567,0,0,0,0,0,0,0.7765,0.7706,0.7678,0.7695,0.767,0.7621,0.7635,0.7599,0.7583,0.7576,0.7521,0.7512,0.7523,0.7501,0.7481,0.7507,0.7466,0.7469,0.7521,0.7532,0.7541,0.7546,0.7418,0,0,0,0,0,0.7786,0.7781,0.773,0.775,0.7738,0.7689,0.7682,0.7649,0.7621,0.7611,0.7578,0.7553,0.7541,0.7536,0.7523,0.7544,0.7533,0.7558,0.7568,0.7576,0.7579,0.7586,0.7596,0.749,0.7489,0.7489,0,0,0.7828,0.7795,0.7796,0.7765,0.7742,0.7738,0.7681,0.768,0.7676,0.7611,0.7613,0.7588,0.7556,0.7569,0.7573,0.7551,0.7606,0.7581,0.7588,0.7587,0.7592,0.7602,0.7611,0.7492,0.7492,0.7491,0,0,0.7902,0.7878,0.789,0.7867,0.7833,0.7799,0.7802,0.7757,0.7738,0.7738,0.7688,0.7683,0.7666,0.7644,0.7631,0.7693,0.7656,0.769,0.774,0.7747,0.7755,0.7763,0.7783,0.7791,0.7694,0.7695,0.7695,0,0.7959,0.7951,0.7901,0.7902,0.7889,0.7829,0.784,0.7821,0.7784,0.7776,0.7752,0.7726,0.7701,0.7706,0.7721,0.7713,0.7713,0.7695,0.7758,0.7765,0.7771,0.7789,0.7798,0.7699,0.7698,0.7698,0.7698,0,0.8022,0.8017,0.8031,0.7995,0.7984,0.7991,0.794,0.7935,0.7902,0.787,0.7871,0.7837,0.7815,0.7814,0.7783,0.7814,0.7801,0.7769,0.7726,0.7786,0.7803,0.781,0.7705,0.7704,0.7702,0.7701,0,0,0.8149,0.8083,0.8089,0.8071,0.8027,0.8022,0.8024,0.8001,0.7997,0.7973,0.7972,0.7957,0.7926,0.7911,0.7876,0.7883,0.7931,0.7848,0.7847,0.7863,0.7961,0.7985,0.7994,0.7906,0.7907,0.7908,0.7963,0,0.8214,0.8215,0.8168,0.8182,0.8175,0.8116,0.8117,0.809,0.806,0.8049,0.8016,0.8005,0.7966,0.7956,0.7959,0.7925,0.795,0.792,0.7904,0.7904,0.7913,0.8003,0.8029,0.8082,0.7969,0.797,0.7971,0,0.8291,0.827,0.8282,0.8234,0.823,0.8232,0.8206,0.8197,0.8164,0.8141,0.8123,0.8082,0.808,0.804,0.8035,0.8015,0.8006,0.7987,0.7988,0.7984,0.7941,0.8,0.8098,0.8106,0.7981,0.798,0.7979,0,0.838,0.8355,0.8358,0.8344,0.8289,0.8292,0.8269,0.8233,0.8222,0.8199,0.819,0.8167,0.8155,0.8138,0.8091,0.8067,0.8091,0.8048,0.8071,0.8072,0.8078,0.8079,0.8175,0.8074,0.8074,0.8074,0.8074,0,0.8458,0.8467,0.8396,0.8398,0.8406,0.8352,0.8361,0.8332,0.8301,0.8295,0.8243,0.8239,0.8178,0.8167,0.8131,0.813,0.8126,0.8106,0.8096,0.811,0.8113,0.8103,0.8098,0.8076,0.8076,0.8075,0.8075,0,0.8559,0.8512,0.8511,0.8458,0.8445,0.8453,0.8407,0.8406,0.8371,0.8365,0.836,0.8306,0.8289,0.8241,0.8213,0.8188,0.8198,0.8181,0.8209,0.8203,0.8228,0.8226,0.8321,0.833,0.8225,0.8226,0.8227,0,0.8611,0.8616,0.8563,0.8555,0.8534,0.8522,0.8509,0.8455,0.8444,0.8404,0.8407,0.8386,0.8366,0.8342,0.83,0.8277,0.8258,0.8292,0.8254,0.8267,0.8256,0.8256,0.8255,0.8301,0.8302,0.8304,0.8305,0,0.8707,0.8683,0.8666,0.8641,0.8626,0.8604,0.8578,0.8574,0.8513,0.8503,0.8485,0.8469,0.8439,0.8418,0.8388,0.8363,0.8323,0.8317,0.8321,0.8335,0.835,0.834,0.8231,0.8315,0.8314,0.8313,0.8313,0.8312,0.8784,0.8785,0.8747,0.8729,0.8703,0.868,0.8675,0.8639,0.8623,0.8594,0.8562,0.8547,0.851,0.8466,0.8444,0.843,0.8409,0.8415,0.8417,0.8419,0.8424,0.8353,0.8424,0.8424,0.8424,0.8423,0.8423,0,0.8876,0.8848,0.8832,0.8797,0.8782,0.8745,0.8714,0.8704,0.8691,0.866,0.8641,0.8618,0.8597,0.8552,0.8526,0.8524,0.8505,0.8519,0.8518,0.8512,0.8445,0.8444,0.8534,0.8534,0.8534,0.8534,0.8534,0.8534,0.8922,0.8921,0.8892,0.8877,0.8848,0.8832,0.8817,0.8794,0.8769,0.8746,0.8728,0.8698,0.8661,0.8631,0.8609,0.8596,0.8589,0.8608,0.859,0.8528,0.8517,0.8507,0.8505,0.8607,0.8608,0.8657,0.8658,0.8658]}]]